TimePST,TemperatureF,Dew PointF,Humidity,Sea Level PressureIn,VisibilityMPH,Wind Direction,Wind SpeedMPH,Gust SpeedMPH,PrecipitationIn,Events,Conditions,WindDirDegrees,DateUTC
12:13 AM,48.2,41.0,76,30.00,7.0,SSE,9.2,-,N/A,,Clear,160,2013-11-23 08:13:00
12:58 AM,43.7,41.2,91,30.25,7.0,SE,6.9,-,N/A,,Clear,140,2013-11-23 08:58:00
1:58 AM,44.2,39.7,84,30.26,7.0,East,4.6,-,N/A,,Clear,80,2013-11-23 09:58:00
2:43 AM,41.0,41.0,100,30.03,6.0,West,5.8,-,N/A,,Clear,260,2013-11-23 10:43:00
2:58 AM,42.1,40.3,93,30.26,5.0,WNW,4.6,-,N/A,,Clear,290,2013-11-23 10:58:00
3:58 AM,42.8,42.4,99,30.26,3.0,South,3.5,-,N/A,,Clear,190,2013-11-23 11:58:00
4:08 AM,41.0,41.0,100,30.03,2.5,South,5.8,-,N/A,,Clear,180,2013-11-23 12:08:00
4:58 AM,40.8,40.6,99,30.26,2.0,East,3.5,-,N/A,,Clear,90,2013-11-23 12:58:00
5:48 AM,41.0,41.0,100,30.03,1.8,North,2.3,-,N/A,,Clear,350,2013-11-23 13:48:00
5:58 AM,39.2,39.2,100,30.26,1.8,ENE,3.5,-,N/A,,Clear,60,2013-11-23 13:58:00
6:03 AM,41.0,41.0,100,30.03,1.5,Variable,2.3,-,N/A,,Clear,0,2013-11-23 14:03:00
6:13 AM,39.2,39.2,100,30.03,1.8,East,2.3,-,N/A,,Clear,80,2013-11-23 14:13:00
6:38 AM,37.4,37.4,100,30.03,1.5,East,2.3,-,N/A,,Clear,80,2013-11-23 14:38:00
6:53 AM,37.4,37.4,100,30.04,1.2,East,2.3,-,N/A,,Clear,90,2013-11-23 14:53:00
6:58 AM,37.9,37.8,99,30.27,1.2,SE,2.3,-,N/A,,Clear,140,2013-11-23 14:58:00
7:03 AM,37.4,37.4,100,30.04,1.5,ESE,3.5,-,N/A,,Clear,120,2013-11-23 15:03:00
7:08 AM,37.4,37.4,100,30.04,1.8,ESE,3.5,-,N/A,,Clear,110,2013-11-23 15:08:00
7:13 AM,37.4,37.4,100,30.05,1.8,East,3.5,-,N/A,,Clear,80,2013-11-23 15:13:00
7:23 AM,37.4,35.6,93,30.05,2.0,Variable,1.2,-,N/A,,Clear,0,2013-11-23 15:23:00
7:43 AM,37.4,37.4,100,30.05,1.8,East,4.6,-,N/A,,Clear,90,2013-11-23 15:43:00
7:53 AM,39.2,39.2,100,30.06,2.5,ESE,4.6,-,N/A,,Clear,110,2013-11-23 15:53:00
7:58 AM,39.7,39.4,99,30.29,3.0,ESE,3.5,-,N/A,,Clear,110,2013-11-23 15:58:00
8:58 AM,47.7,43.9,87,30.29,4.0,SE,4.6,-,N/A,,Clear,140,2013-11-23 16:58:00
9:58 AM,52.3,41.9,68,30.29,5.0,South,5.8,-,N/A,,Haze,170,2013-11-23 17:58:00
10:58 AM,55.2,43.0,63,30.29,5.0,South,9.2,-,N/A,,Haze,180,2013-11-23 18:58:00
11:58 AM,58.6,41.7,53,30.27,3.0,SSW,9.2,-,N/A,,Haze,210,2013-11-23 19:58:00
12:58 PM,61.0,40.3,46,30.25,5.0,SSW,8.1,-,N/A,,Haze,200,2013-11-23 20:58:00
1:33 PM,62.6,41.0,45,30.00,1.5,SSW,5.8,-,N/A,,Haze,210,2013-11-23 21:33:00
1:38 PM,62.6,39.2,42,30.00,0.8,SSW,5.8,-,N/A,,Haze,200,2013-11-23 21:38:00
1:48 PM,62.6,39.2,42,29.99,1.0,SSW,4.6,-,N/A,,Haze,210,2013-11-23 21:48:00
1:53 PM,62.6,37.4,39,29.99,2.5,SSW,4.6,-,N/A,,Haze,210,2013-11-23 21:53:00
1:58 PM,62.1,37.9,41,30.22,5.0,SSW,4.6,-,N/A,,Haze,200,2013-11-23 21:58:00
2:08 PM,62.6,39.2,42,29.99,3.0,SSW,5.8,-,N/A,,Haze,200,2013-11-23 22:08:00
2:58 PM,62.6,35.1,36,30.22,4.0,SSE,6.9,-,N/A,,Haze,160,2013-11-23 22:58:00
3:28 PM,62.6,39.2,42,29.99,2.5,SSE,8.1,-,N/A,,Haze,160,2013-11-23 23:28:00
3:33 PM,62.6,39.2,42,29.99,3.0,South,8.1,-,N/A,,Haze,170,2013-11-23 23:33:00
3:38 PM,62.6,39.2,42,29.99,2.5,South,8.1,-,N/A,,Haze,170,2013-11-23 23:38:00
3:43 PM,62.6,39.2,42,29.99,1.5,SSE,8.1,-,N/A,,Haze,160,2013-11-23 23:43:00
3:48 PM,60.8,39.2,45,29.99,1.2,SSE,6.9,-,N/A,,Haze,160,2013-11-23 23:48:00
3:53 PM,60.8,39.2,45,29.99,1.5,South,8.1,-,N/A,,Haze,170,2013-11-23 23:53:00
3:58 PM,60.8,39.2,45,30.22,10.0,South,6.9,-,N/A,,Clear,170,2013-11-23 23:58:00
4:18 PM,59.0,39.2,48,30.00,1.8,South,6.9,-,N/A,,Haze,170,2013-11-24 00:18:00
4:23 PM,57.2,39.2,51,29.99,1.5,South,6.9,-,N/A,,Haze,170,2013-11-24 00:23:00
4:28 PM,57.2,39.2,51,29.99,1.2,SSE,6.9,-,N/A,,Haze,160,2013-11-24 00:28:00
4:33 PM,55.4,39.2,54,29.99,2.0,SSE,5.8,-,N/A,,Haze,160,2013-11-24 00:33:00
4:43 PM,53.6,39.2,58,30.00,1.8,SSE,5.8,-,N/A,,Haze,160,2013-11-24 00:43:00
4:48 PM,53.6,39.2,58,30.00,1.2,SSE,6.9,-,N/A,,Haze,160,2013-11-24 00:48:00
4:58 PM,52.7,39.0,60,30.23,1.2,SSE,6.9,-,N/A,,Haze,160,2013-11-24 00:58:00
5:03 PM,51.8,39.2,62,30.00,1.5,SSE,6.9,-,N/A,,Haze,160,2013-11-24 01:03:00
5:08 PM,50.0,39.2,66,30.00,1.8,SSE,5.8,-,N/A,,Haze,160,2013-11-24 01:08:00
5:13 PM,50.0,39.2,66,30.01,2.0,SSE,5.8,-,N/A,,Haze,160,2013-11-24 01:13:00
5:28 PM,50.0,39.2,66,30.02,2.5,South,5.8,-,N/A,,Haze,170,2013-11-24 01:28:00
5:33 PM,51.8,39.2,62,30.02,1.5,SSE,4.6,-,N/A,,Haze,160,2013-11-24 01:33:00
5:43 PM,51.8,39.2,62,30.02,2.5,SE,4.6,-,N/A,,Haze,130,2013-11-24 01:43:00
5:48 PM,50.0,39.2,66,30.02,4.0,SE,4.6,-,N/A,,Haze,130,2013-11-24 01:48:00
5:58 PM,50.2,40.1,68,30.26,3.0,ESE,6.9,-,N/A,,Haze,120,2013-11-24 01:58:00
6:13 PM,50.0,41.0,71,30.03,6.0,ESE,5.8,-,N/A,,Haze,110,2013-11-24 02:13:00
6:58 PM,48.2,40.6,75,30.28,6.0,SE,5.8,-,N/A,,Haze,130,2013-11-24 02:58:00
7:58 PM,48.6,39.7,72,30.29,7.0,ESE,6.9,-,N/A,,Clear,110,2013-11-24 03:58:00
8:58 PM,44.4,39.6,83,30.31,5.0,ENE,4.6,-,N/A,,Haze,70,2013-11-24 04:58:00
9:13 PM,44.6,39.2,81,30.09,5.0,East,4.6,-,N/A,,Haze,90,2013-11-24 05:13:00
9:28 PM,41.0,39.2,93,30.09,5.0,ENE,2.3,-,N/A,,Clear,60,2013-11-24 05:28:00
9:43 PM,42.8,39.2,87,30.09,5.0,ENE,3.5,-,N/A,,Haze,60,2013-11-24 05:43:00
9:58 PM,43.0,38.7,85,30.33,5.0,ENE,4.6,-,N/A,,Haze,60,2013-11-24 05:58:00
10:58 PM,42.4,38.1,85,30.33,6.0,ENE,6.9,-,N/A,,Haze,60,2013-11-24 06:58:00
11:58 PM,42.8,38.7,85,30.35,7.0,East,4.6,-,N/A,,Clear,80,2013-11-24 07:58:00